Eveleth, MN

2:54 AM CDT on April 28, 2017 (GMT -0500)
Eveleth-Virginia Municipal

Weather History for KEVM - March, 2013

Change the Weather History Date:

Sunday, March 17, 2013

  Actual Average Record
Temperature  
Mean Temperature 0 °F -  
Max Temperature 22 °F 34 °F 77 °F (2012)
Min Temperature -22 °F 13 °F -22 °F (2013)
Degree Days  
Heating Degree Days 65    
Moisture  
Dew Point -6 °F    
Average Humidity 61    
Maximum Humidity 80    
Minimum Humidity 37    
Precipitation  
Precipitation 0.00 in - - ()
Sea Level Pressure  
Sea Level Pressure 30.10 in    
Wind  
Wind Speed 4 mph (SE)    
Max Wind Speed 16 mph    
Max Gust Speed 20 mph    
Visibility 10 miles    
Events      
Averages and records for this station are not official NWS values.
T = Trace of Precipitation, MM = Missing Value Source: NWS Daily Summary

Daily Weather History Graph

Daily Weather History Graph

Search for Another Location

Airport or City:

Trip Planner

Search our weather history database for the weather conditions in past years. The results will help you decide how hot, cold, wet, or windy it might be!

Date:

Astronomy

Mar. 17, 2013 Rise Set
Actual Time 7:18 AM CDT 7:18 PM CDT
Civil Twilight 6:47 AM CDT 7:49 PM CDT
Nautical Twilight 6:12 AM CDT 8:25 PM CDT
Astronomical Twilight 5:35 AM CDT 9:02 PM CDT
Moon 10:08 AM CDT (3/17) 12:49 AM CDT (3/17)
Length of Visible Light 13h 01m
Length of Day
12h 00m
Waxing Crescent, 31% of the Moon is Illuminated
Mar 17
Waxing Crescent
Mar 19
First Quarter
Mar 27
Full
Apr 2
Last Quarter
Apr 10
New

Hourly Weather History & Observations

Time (CDT) Temp. Windchill Dew Point Humidity Pressure Visibility Wind Dir Wind Speed Gust Speed Precip Events Conditions
12:10 AM 2.1 °F -5.4 °F -6.3 °F 68% 30.20 in 10.0 mi NW 3.5 mph - N/A   Clear
12:29 AM 1.0 °F - -6.2 °F 72% 30.20 in 10.0 mi Calm Calm - N/A   Clear
12:49 AM -4.0 °F - -9.9 °F 76% 30.21 in 10.0 mi Calm Calm - N/A   Clear
1:09 AM -5.1 °F - -10.1 °F 79% 30.22 in 10.0 mi Calm Calm - N/A   Clear
1:29 AM -5.4 °F - -10.3 °F 80% 30.22 in 10.0 mi Calm Calm - N/A   Clear
1:49 AM -8.0 °F - -13.0 °F 79% 30.23 in 10.0 mi Calm Calm - N/A   Clear
2:10 AM -8.5 °F - -13.5 °F 79% 30.23 in 10.0 mi Calm Calm - N/A   Clear
2:29 AM -10.5 °F - -15.7 °F 78% 30.23 in 10.0 mi Calm Calm - N/A   Clear
2:49 AM -11.2 °F - -16.4 °F 78% 30.23 in 10.0 mi Calm Calm - N/A   Clear
3:10 AM -14.4 °F - -20.4 °F 75% 30.23 in 10.0 mi Calm Calm - N/A   Clear
3:29 AM -16.8 °F - -23.8 °F 70% 30.22 in 10.0 mi Calm Calm - N/A   Clear
3:49 AM -16.1 °F - -22.2 °F 74% 30.23 in 10.0 mi Calm Calm - N/A   Clear
4:10 AM -16.6 °F - -23.1 °F 72% 30.22 in 10.0 mi Calm Calm - N/A   Clear
4:29 AM -17.7 °F - -24.5 °F 71% 30.22 in 10.0 mi Calm Calm - N/A   Clear
4:49 AM -17.9 °F - -24.2 °F 73% 30.22 in 10.0 mi Calm Calm - N/A   Clear
5:10 AM -18.4 °F - -24.7 °F 73% 30.22 in 10.0 mi Calm Calm - N/A   Clear
5:29 AM -19.5 °F - -26.7 °F 70% 30.22 in 10.0 mi Calm Calm - N/A   Clear
5:49 AM -20.6 °F - -27.9 °F 69% 30.22 in 10.0 mi Calm Calm - N/A   Clear
6:10 AM -22.0 °F -35.6 °F -29.2 °F 69% 30.21 in 10.0 mi NE 4.6 mph - N/A   Clear
6:29 AM -19.8 °F - -27.0 °F 69% 30.22 in 10.0 mi Calm Calm - N/A   Clear
6:49 AM -20.7 °F - -27.9 °F 69% 30.21 in 10.0 mi Calm Calm - N/A   Clear
7:10 AM -20.7 °F - -28.1 °F 69% 30.22 in 10.0 mi Calm Calm - N/A   Clear
7:29 AM -21.3 °F - -28.7 °F 69% 30.22 in 10.0 mi Calm Calm - N/A   Clear
7:49 AM -20.0 °F - -27.0 °F 70% 30.21 in 10.0 mi Calm Calm - N/A   Clear
8:10 AM -15.7 °F - -21.6 °F 75% 30.19 in 10.0 mi Calm Calm - N/A   Clear
8:29 AM -15.5 °F - -22.0 °F 73% 30.19 in 10.0 mi Calm Calm - N/A   Clear
8:49 AM -10.5 °F - -15.9 °F 77% 30.20 in 10.0 mi Calm Calm - N/A   Clear
9:10 AM -7.1 °F - -12.3 °F 78% 30.19 in 10.0 mi Calm Calm - N/A   Clear
9:29 AM -0.4 °F -10.4 °F -6.9 °F 74% 30.18 in 10.0 mi ESE 4.6 mph - N/A   Clear
9:49 AM 2.3 °F - -8.1 °F 62% 30.19 in 10.0 mi Calm Calm - N/A   Clear
10:10 AM 5.9 °F -3.0 °F -7.8 °F 53% 30.17 in 10.0 mi SE 4.6 mph - N/A   Clear
10:29 AM 9.5 °F -4.4 °F -2.7 °F 58% 30.18 in 10.0 mi SSE 10.4 mph - N/A   Clear
10:50 AM 12.2 °F -1.8 °F 0.5 °F 60% 30.17 in 10.0 mi South 11.5 mph 17.3 mph N/A   Clear
11:09 AM 12.2 °F -3.7 °F 0.3 °F 59% 30.16 in 10.0 mi SSE 15.0 mph 18.4 mph N/A   Clear
11:29 AM 12.4 °F -3.5 °F -0.8 °F 56% 30.17 in 10.0 mi SSE 15.0 mph 18.4 mph N/A   Clear
11:50 AM 14.9 °F 2.3 °F 1.6 °F 56% 30.15 in 10.0 mi South 10.4 mph - N/A   Clear
12:09 PM 14.9 °F 0.9 °F -0.6 °F 50% 30.14 in 10.0 mi SE 12.7 mph 19.6 mph N/A   Clear
12:29 PM 14.9 °F 3.1 °F -0.0 °F 52% 30.13 in 10.0 mi SSE 9.2 mph - N/A   Clear
12:50 PM 17.4 °F 4.1 °F 0.9 °F 48% 30.12 in 10.0 mi SSE 12.7 mph 19.6 mph N/A   Scattered Clouds
1:09 PM 17.4 °F 4.7 °F 1.8 °F 50% 30.11 in 10.0 mi SSE 11.5 mph - N/A   Overcast
1:29 PM 18.7 °F 5.7 °F 0.7 °F 46% 30.10 in 10.0 mi SSE 12.7 mph 16.1 mph N/A   Mostly Cloudy
1:50 PM 19.9 °F 6.7 °F -0.6 °F 41% 30.08 in 10.0 mi South 13.8 mph 19.6 mph N/A   Overcast
2:09 PM 19.9 °F 6.7 °F -0.8 °F 40% 30.08 in 10.0 mi SSE 13.8 mph 17.3 mph N/A   Mostly Cloudy
2:29 PM 19.9 °F 6.7 °F -1.3 °F 39% 30.07 in 10.0 mi South 13.8 mph - N/A   Mostly Cloudy
3:09 PM 20.1 °F 7.5 °F -2.4 °F 37% 30.04 in 10.0 mi SSE 12.7 mph 16.1 mph N/A   Scattered Clouds
3:29 PM 20.3 °F 9.0 °F -0.9 °F 39% 30.03 in 10.0 mi SE 10.4 mph - N/A   Mostly Cloudy
3:50 PM 21.2 °F 10.1 °F 0.3 °F 40% 30.03 in 10.0 mi SSE 10.4 mph - N/A   Overcast
4:09 PM 20.8 °F 6.8 °F 0.5 °F 41% 30.02 in 10.0 mi SSE 16.1 mph - N/A   Overcast
4:29 PM 21.6 °F 8.8 °F 1.0 °F 41% 30.00 in 10.0 mi SE 13.8 mph - N/A   Scattered Clouds
4:50 PM 22.5 °F 11.7 °F 1.9 °F 41% 30.00 in 10.0 mi SSE 10.4 mph - N/A   Clear
5:09 PM 22.5 °F 11.1 °F 2.5 °F 42% 29.99 in 10.0 mi SSE 11.5 mph - N/A   Scattered Clouds
5:29 PM 22.1 °F 12.8 °F 1.6 °F 41% 29.98 in 10.0 mi SE 8.1 mph - N/A   Mostly Cloudy
5:50 PM 22.5 °F 11.1 °F 1.0 °F 40% 29.98 in 10.0 mi SE 11.5 mph 19.6 mph N/A   Overcast
6:09 PM 22.5 °F 12.4 °F 1.0 °F 40% 29.97 in 10.0 mi SE 9.2 mph - N/A   Overcast
6:30 PM 22.5 °F 11.1 °F 1.4 °F 40% 29.97 in 10.0 mi SSE 11.5 mph 16.1 mph N/A   Overcast
6:49 PM 22.5 °F 13.2 °F 2.5 °F 42% 29.97 in 10.0 mi SE 8.1 mph - N/A   Overcast
7:09 PM 22.5 °F 13.2 °F 2.8 °F 43% 29.96 in 10.0 mi SE 8.1 mph - N/A   Overcast
7:30 PM 22.5 °F 15.1 °F 3.7 °F 45% 29.95 in 10.0 mi SE 5.8 mph - N/A   Overcast
7:49 PM 20.3 °F 9.0 °F 3.2 °F 48% 29.95 in 10.0 mi SE 10.4 mph - N/A   Overcast
8:09 PM 20.1 °F 10.3 °F 3.2 °F 48% 29.93 in 10.0 mi ESE 8.1 mph - N/A   Overcast
8:30 PM 19.9 °F 11.1 °F 5.2 °F 53% 29.93 in 10.0 mi ESE 6.9 mph - N/A   Overcast
8:49 PM 18.1 °F 7.1 °F 7.0 °F 62% 29.93 in 10.0 mi SE 9.2 mph - N/A   Mostly Cloudy
9:09 PM 17.4 °F 8.0 °F 7.0 °F 64% 29.92 in 10.0 mi ESE 6.9 mph - N/A   Overcast
9:30 PM 17.4 °F 7.1 °F 8.6 °F 68% 29.91 in 10.0 mi ESE 8.1 mph - N/A   Overcast
9:49 PM 17.4 °F 8.0 °F 9.5 °F 71% 29.90 in 10.0 mi ESE 6.9 mph - N/A   Overcast
10:09 PM 18.3 °F 9.1 °F 10.9 °F 73% 29.90 in 10.0 mi SE 6.9 mph - N/A   Overcast
10:30 PM 19.9 °F 10.1 °F 12.7 °F 74% 29.89 in 10.0 mi SE 8.1 mph - N/A   Overcast
10:49 PM 19.9 °F 11.1 °F 12.6 °F 73% 29.88 in 10.0 mi SE 6.9 mph - N/A   Mostly Cloudy
11:10 PM 19.9 °F 10.1 °F 12.2 °F 72% 29.87 in 10.0 mi SE 8.1 mph - N/A   Mostly Cloudy
11:29 PM 20.1 °F 9.5 °F 12.2 °F 71% 29.86 in 10.0 mi SE 9.2 mph - N/A   Overcast
11:50 PM 20.3 °F 10.6 °F 11.8 °F 70% 29.86 in 10.0 mi SSE 8.1 mph 16.1 mph N/A   Overcast